| time (UTC) | temp F | wind direction | speed MPH | gust MPH | rain 1hr in | rain 24hr in | rain mn in | humidity % | barometer mb |
| 20260905055119 | 81 | 90 | 0.0 | 2.0 | 0.00 | 0.00 | 0.00 | 57 | 1018.4 |
| 20260905054619 | 81 | 90 | 0.0 | 1.0 | 0.00 | 0.00 | 0.00 | 57 | 1018.3 |
| 20260905054112 | 80 | 90 | 0.0 | 1.0 | 0.00 | 0.00 | 0.00 | 58 | 1018.3 |
| 20260905053605 | 80 | 89 | 1.0 | 1.0 | 0.00 | 0.00 | 0.00 | 58 | 1018.3 |
| 20260905053059 | 79 | 89 | 1.0 | 1.0 | 0.00 | 0.00 | 0.00 | 58 | 1018.4 |
| 20260905052552 | 79 | 89 | 1.0 | 1.0 | 0.00 | 0.00 | 0.00 | 58 | 1018.3 |
| 20260905052046 | 78 | 89 | 0.0 | 2.0 | 0.00 | 0.00 | 0.00 | 58 | 1018.2 |
| 20260905052025 | 78 | 89 | 0.0 | 2.0 | 0.00 | 0.00 | 0.00 | 58 | 1018.3 |
| 20260905051035 | 78 | 89 | 1.0 | 2.0 | 0.00 | 0.00 | 0.00 | 58 | 1018.3 |
| 20260905050529 | 78 | 89 | 1.0 | 2.0 | 0.00 | 0.00 | 0.00 | 58 | 1018.3 |
| 20260905050023 | 77 | 90 | 0.0 | 2.0 | 0.00 | 0.00 | 0.00 | 58 | 1018.3 |
| 20260905045516 | 77 | 75 | 0.0 | 2.0 | 0.00 | 0.00 | 0.00 | 60 | 1018.3 |
| 20260905045011 | 76 | 75 | 0.0 | 3.0 | 0.00 | 0.00 | 0.00 | 60 | 1018.2 |
| 20260905044505 | 76 | 75 | 0.0 | 3.0 | 0.00 | 0.00 | 0.00 | 61 | 1018.2 |
| 20260905043958 | 76 | 82 | 1.0 | 3.0 | 0.00 | 0.00 | 0.00 | 61 | 1018.1 |
| 20260905043452 | 75 | 82 | 1.0 | 3.0 | 0.00 | 0.00 | 0.00 | 62 | 1018.1 |
| 20260905042946 | 75 | 92 | 1.0 | 3.0 | 0.00 | 0.00 | 0.00 | 62 | 1018.1 |
| 20260905042448 | 75 | 93 | 1.0 | 2.0 | 0.00 | 0.00 | 0.00 | 62 | 1018.0 |
| 20260905042204 | 75 | 93 | 1.0 | 3.0 | 0.00 | 0.00 | 0.00 | 62 | 1017.9 |
| 20260905041428 | 75 | 92 | 2.0 | 4.0 | 0.00 | 0.00 | 0.00 | 62 | 1017.8 |
| 20260905040923 | 75 | 97 | 2.0 | 4.0 | 0.00 | 0.00 | 0.00 | 62 | 1017.8 |
| 20260905040634 | 75 | 99 | 2.0 | 4.0 | 0.00 | 0.00 | 0.00 | 62 | 1017.8 |
| 20260905040140 | 75 | 89 | 2.0 | 4.0 | 0.00 | 0.00 | 0.00 | 63 | 1017.7 |
| 20260905035404 | 75 | 91 | 2.0 | 4.0 | 0.00 | 0.00 | 0.00 | 63 | 1017.6 |
| 20260905034858 | 75 | 79 | 2.0 | 3.0 | 0.00 | 0.00 | 0.00 | 64 | 1017.6 |
| 20260905034352 | 75 | 104 | 2.0 | 3.0 | 0.00 | 0.00 | 0.00 | 65 | 1017.5 |
| 20260905033847 | 75 | 94 | 1.0 | 3.0 | 0.00 | 0.00 | 0.00 | 65 | 1017.6 |
| 20260905033340 | 74 | 108 | 1.0 | 3.0 | 0.00 | 0.00 | 0.00 | 65 | 1017.6 |
| 20260905032835 | 75 | 78 | 1.0 | 3.0 | 0.00 | 0.00 | 0.00 | 65 | 1017.6 |
| 20260905032329 | 75 | 89 | 1.0 | 3.0 | 0.00 | 0.00 | 0.00 | 65 | 1017.5 |
| 20260905031815 | 75 | 90 | 1.0 | 3.0 | 0.00 | 0.00 | 0.00 | 65 | 1017.5 |
| 20260905031749 | 75 | 102 | 0.0 | 2.0 | 0.00 | 0.00 | 0.00 | 64 | 1017.5 |
| 20260905031018 | 76 | 102 | 0.0 | 2.0 | 0.00 | 0.00 | 0.00 | 63 | 1017.4 |
| 20260905030256 | 76 | 102 | 0.0 | 1.0 | 0.00 | 0.00 | 0.00 | 63 | 1017.4 |
| 20260905025750 | 76 | 102 | 1.0 | 2.0 | 0.00 | 0.00 | 0.00 | 63 | 1017.3 |
| 20260905025246 | 76 | 102 | 1.0 | 2.0 | 0.00 | 0.00 | 0.00 | 63 | 1017.3 |
| 20260905025009 | 76 | 102 | 1.0 | 2.0 | 0.00 | 0.00 | 0.00 | 63 | 1017.3 |
| 20260905024232 | 76 | 105 | 0.0 | 2.0 | 0.00 | 0.00 | 0.00 | 63 | 1017.2 |
| 20260905023945 | 76 | 105 | 0.0 | 1.0 | 0.00 | 0.00 | 0.00 | 63 | 1017.2 |
| 20260905023221 | 76 | 105 | 0.0 | 1.0 | 0.00 | 0.00 | 0.00 | 63 | 1017.2 |
| 20260905022715 | 76 | 210 | 0.0 | 2.0 | 0.00 | 0.00 | 0.00 | 63 | 1017.2 |
| 20260905022208 | 76 | 210 | 0.0 | 2.0 | 0.00 | 0.00 | 0.00 | 63 | 1017.3 |
| 20260905021703 | 76 | 89 | 0.0 | 2.0 | 0.00 | 0.00 | 0.00 | 62 | 1017.2 |
| 20260905021157 | 76 | 89 | 1.0 | 2.0 | 0.00 | 0.00 | 0.00 | 62 | 1017.3 |
| 20260905020650 | 76 | 89 | 1.0 | 2.0 | 0.00 | 0.00 | 0.00 | 61 | 1017.2 |
| 20260905020405 | 76 | 89 | 0.0 | 2.0 | 0.00 | 0.00 | 0.00 | 61 | 1017.2 |
| 20260905015639 | 76 | 89 | 1.0 | 3.0 | 0.00 | 0.00 | 0.00 | 61 | 1017.3 |
| 20260905015133 | 76 | 89 | 2.0 | 5.0 | 0.00 | 0.00 | 0.00 | 61 | 1017.1 |
| 20260905014626 | 76 | 91 | 2.0 | 5.0 | 0.00 | 0.00 | 0.00 | 61 | 1017.2 |
| 20260905014120 | 76 | 107 | 1.0 | 3.0 | 0.00 | 0.00 | 0.00 | 60 | 1017.1 |
| 20260905013614 | 77 | 77 | 1.0 | 3.0 | 0.00 | 0.00 | 0.00 | 59 | 1017.1 |
| 20260905013108 | 77 | 98 | 1.0 | 2.0 | 0.00 | 0.00 | 0.00 | 58 | 1017.1 |
| 20260905012823 | 77 | 98 | 1.0 | 2.0 | 0.00 | 0.00 | 0.00 | 58 | 1017.0 |
| 20260905012057 | 77 | 98 | 0.0 | 2.0 | 0.00 | 0.00 | 0.00 | 58 | 1017.0 |
| 20260905011551 | 77 | 98 | 0.0 | 2.0 | 0.00 | 0.00 | 0.00 | 58 | 1017.0 |
| 20260905011534 | 77 | 98 | 1.0 | 4.0 | 0.00 | 0.00 | 0.00 | 57 | 1017.0 |
| 20260905010539 | 77 | 98 | 2.0 | 4.0 | 0.00 | 0.00 | 0.00 | 58 | 1016.9 |
| 20260905010033 | 77 | 99 | 1.0 | 2.0 | 0.00 | 0.00 | 0.00 | 58 | 1016.9 |
| 20260905005527 | 77 | 99 | 1.0 | 3.0 | 0.00 | 0.00 | 0.00 | 58 | 1016.9 |
| 20260905005021 | 76 | 99 | 1.0 | 3.0 | 0.00 | 0.00 | 0.00 | 58 | 1016.9 |
| 20260905004515 | 76 | 95 | 2.0 | 5.0 | 0.00 | 0.00 | 0.00 | 57 | 1016.9 |
| 20260905004236 | 77 | 82 | 3.0 | 5.0 | 0.00 | 0.00 | 0.00 | 56 | 1016.7 |
| 20260905003503 | 77 | 89 | 3.0 | 5.0 | 0.00 | 0.00 | 0.00 | 54 | 1016.7 |
| 20260905003221 | 77 | 96 | 2.0 | 4.0 | 0.00 | 0.00 | 0.00 | 52 | 1016.7 |
| 20260905002459 | 77 | 90 | 2.0 | 4.0 | 0.00 | 0.00 | 0.00 | 52 | 1016.7 |
| 20260905001958 | 77 | 120 | 1.0 | 4.0 | 0.00 | 0.00 | 0.00 | 53 | 1016.6 |
| 20260905001457 | 77 | 105 | 1.0 | 3.0 | 0.00 | 0.00 | 0.00 | 51 | 1016.6 |
| 20260905000955 | 77 | 304 | 1.0 | 3.0 | 0.00 | 0.00 | 0.00 | 51 | 1016.5 |
| 20260905000455 | 77 | 55 | 0.0 | 2.0 | 0.00 | 0.00 | 0.00 | 50 | 1016.5 |
| 20260905000218 | 77 | 55 | 1.0 | 2.0 | 0.00 | 0.00 | 0.00 | 50 | 1016.4 |
| 20260904235454 | 78 | 101 | 1.0 | 6.0 | 0.00 | 0.00 | 0.00 | 49 | 1016.3 |
| 20260904234952 | 77 | 104 | 2.0 | 6.0 | 0.00 | 0.00 | 0.00 | 49 | 1016.3 |
| 20260904234711 | 78 | 143 | 2.0 | 6.0 | 0.00 | 0.00 | 0.00 | 49 | 1016.3 |
| 20260904234207 | 78 | 113 | 2.0 | 6.0 | 0.00 | 0.00 | 0.00 | 49 | 1016.3 |
| 20260904233448 | 78 | 142 | 2.0 | 6.0 | 0.00 | 0.00 | 0.00 | 48 | 1016.3 |
| 20260904232947 | 78 | 97 | 1.0 | 4.0 | 0.00 | 0.00 | 0.00 | 48 | 1016.3 |
| 20260904232444 | 78 | 99 | 1.0 | 3.0 | 0.00 | 0.00 | 0.00 | 48 | 1016.3 |
| 20260904231945 | 78 | 152 | 1.0 | 3.0 | 0.00 | 0.00 | 0.00 | 48 | 1016.3 |
| 20260904231444 | 78 | 103 | 1.0 | 3.0 | 0.00 | 0.00 | 0.00 | 48 | 1016.3 |
| 20260904230945 | 78 | 115 | 1.0 | 3.0 | 0.00 | 0.00 | 0.00 | 48 | 1016.3 |
| 20260904230441 | 78 | 91 | 1.0 | 3.0 | 0.00 | 0.00 | 0.00 | 48 | 1016.2 |
| 20260904225941 | 78 | 148 | 1.0 | 3.0 | 0.00 | 0.00 | 0.00 | 50 | 1016.2 |
| 20260904225438 | 78 | 155 | 1.0 | 2.0 | 0.00 | 0.00 | 0.00 | 50 | 1016.3 |
| 20260904224939 | 78 | 149 | 1.0 | 2.0 | 0.00 | 0.00 | 0.00 | 52 | 1016.3 |
| 20260904224439 | 78 | 146 | 1.0 | 2.0 | 0.00 | 0.00 | 0.00 | 53 | 1016.3 |
| 20260904223939 | 79 | 148 | 1.0 | 2.0 | 0.00 | 0.00 | 0.00 | 54 | 1016.3 |
| 20260904223438 | 79 | 47 | 0.0 | 2.0 | 0.00 | 0.00 | 0.00 | 54 | 1016.3 |
| 20260904222939 | 79 | 46 | 1.0 | 2.0 | 0.00 | 0.00 | 0.00 | 54 | 1016.3 |
| 20260904222701 | 80 | 46 | 1.0 | 2.0 | 0.00 | 0.00 | 0.00 | 52 | 1016.3 |
| 20260904221938 | 80 | 259 | 1.0 | 3.0 | 0.00 | 0.00 | 0.00 | 50 | 1016.2 |
| 20260904221439 | 80 | 259 | 1.0 | 3.0 | 0.00 | 0.00 | 0.00 | 53 | 1016.2 |
| 20260904220939 | 80 | 203 | 1.0 | 3.0 | 0.00 | 0.00 | 0.00 | 53 | 1016.2 |
| 20260904220439 | 81 | 252 | 1.0 | 3.0 | 0.00 | 0.00 | 0.00 | 51 | 1016.3 |
| 20260904215939 | 81 | 269 | 1.0 | 3.0 | 0.00 | 0.00 | 0.00 | 49 | 1016.2 |
| 20260904215438 | 81 | 316 | 2.0 | 7.0 | 0.00 | 0.00 | 0.00 | 50 | 1016.3 |
| 20260904214938 | 81 | 302 | 3.0 | 7.0 | 0.00 | 0.00 | 0.00 | 50 | 1016.4 |
| 20260904214436 | 81 | 311 | 3.0 | 7.0 | 0.00 | 0.00 | 0.00 | 50 | 1016.4 |
| 20260904213934 | 81 | 311 | 2.0 | 7.0 | 0.00 | 0.00 | 0.00 | 46 | 1016.3 |
| 20260904213434 | 80 | 302 | 1.0 | 4.0 | 0.00 | 0.00 | 0.00 | 48 | 1016.4 |
| 20260904212928 | 80 | 252 | 1.0 | 3.0 | 0.00 | 0.00 | 0.00 | 48 | 1016.3 |
| 20260904212426 | 81 | 212 | 1.0 | 3.0 | 0.00 | 0.00 | 0.00 | 47 | 1016.3 |
| 20260904212151 | 80 | 271 | 0.0 | 2.0 | 0.00 | 0.00 | 0.00 | 45 | 1016.4 |
| 20260904211427 | 80 | 336 | 0.0 | 1.0 | 0.00 | 0.00 | 0.00 | 46 | 1016.3 |
| 20260904210929 | 80 | 336 | 1.0 | 1.0 | 0.00 | 0.00 | 0.00 | 46 | 1016.3 |
| 20260904210426 | 80 | 336 | 0.0 | 1.0 | 0.00 | 0.00 | 0.00 | 45 | 1016.3 |
| 20260904205925 | 80 | 336 | 2.0 | 8.0 | 0.00 | 0.00 | 0.00 | 46 | 1016.4 |
| 20260904205425 | 81 | 336 | 2.0 | 8.0 | 0.00 | 0.00 | 0.00 | 46 | 1016.4 |
| 20260904204925 | 81 | 47 | 1.0 | 5.0 | 0.00 | 0.00 | 0.00 | 44 | 1016.2 |
| 20260904204425 | 81 | 57 | 1.0 | 3.0 | 0.00 | 0.00 | 0.00 | 48 | 1016.3 |
| 20260904203926 | 81 | 20 | 1.0 | 3.0 | 0.00 | 0.00 | 0.00 | 47 | 1016.3 |
| 20260904203425 | 81 | 215 | 1.0 | 4.0 | 0.00 | 0.00 | 0.00 | 47 | 1016.2 |
| 20260904202925 | 81 | 238 | 1.0 | 4.0 | 0.00 | 0.00 | 0.00 | 47 | 1016.2 |
| 20260904202424 | 81 | 148 | 1.0 | 3.0 | 0.00 | 0.00 | 0.00 | 47 | 1016.2 |
| 20260904201924 | 81 | 183 | 1.0 | 2.0 | 0.00 | 0.00 | 0.00 | 47 | 1016.2 |
| 20260904201424 | 82 | 156 | 1.0 | 3.0 | 0.00 | 0.00 | 0.00 | 47 | 1016.2 |
| 20260904201142 | 82 | 198 | 1.0 | 3.0 | 0.00 | 0.00 | 0.00 | 46 | 1016.1 |
| 20260904200424 | 82 | 216 | 1.0 | 4.0 | 0.00 | 0.00 | 0.00 | 46 | 1016.2 |
| 20260904200145 | 82 | 159 | 1.0 | 4.0 | 0.00 | 0.00 | 0.00 | 49 | 1016.1 |
| 20260904195424 | 82 | 139 | 1.0 | 4.0 | 0.00 | 0.00 | 0.00 | 49 | 1016.1 |
| 20260904194925 | 82 | 150 | 1.0 | 3.0 | 0.00 | 0.00 | 0.00 | 45 | 1016.0 |
| 20260904194420 | 82 | 179 | 1.0 | 3.0 | 0.00 | 0.00 | 0.00 | 43 | 1016.0 |
| 20260904193920 | 83 | 58 | 1.0 | 3.0 | 0.00 | 0.00 | 0.00 | 45 | 1016.0 |
| 20260904193420 | 83 | 255 | 1.0 | 3.0 | 0.00 | 0.00 | 0.00 | 45 | 1016.0 |
| 20260904193143 | 83 | 255 | 1.0 | 4.0 | 0.00 | 0.00 | 0.00 | 44 | 1016.0 |
| 20260904192420 | 82 | 301 | 1.0 | 4.0 | 0.00 | 0.00 | 0.00 | 45 | 1016.0 |
| 20260904191919 | 83 | 136 | 1.0 | 4.0 | 0.00 | 0.00 | 0.00 | 44 | 1016.1 |
| 20260904191418 | 83 | 80 | 1.0 | 3.0 | 0.00 | 0.00 | 0.00 | 45 | 1016.0 |
| 20260904190918 | 84 | 172 | 1.0 | 3.0 | 0.00 | 0.00 | 0.00 | 43 | 1016.0 |
| 20260904190644 | 84 | 153 | 1.0 | 3.0 | 0.00 | 0.00 | 0.00 | 43 | 1016.0 |
| 20260904185915 | 83 | 103 | 0.0 | 2.0 | 0.00 | 0.00 | 0.00 | 45 | 1016.0 |
| 20260904185415 | 83 | 182 | 0.0 | 1.0 | 0.00 | 0.00 | 0.00 | 45 | 1016.0 |
| 20260904184913 | 83 | 185 | 0.0 | 0.0 | 0.00 | 0.00 | 0.00 | 46 | 1015.9 |
| 20260904184413 | 83 | 185 | 0.0 | 1.0 | 0.00 | 0.00 | 0.00 | 46 | 1015.9 |
| 20260904183912 | 83 | 185 | 1.0 | 2.0 | 0.00 | 0.00 | 0.00 | 46 | 1015.7 |
| 20260904183415 | 83 | 184 | 1.0 | 2.0 | 0.00 | 0.00 | 0.00 | 46 | 1015.7 |
| 20260904183411 | 84 | 143 | 0.0 | 2.0 | 0.00 | 0.00 | 0.00 | 47 | 1015.6 |
| 20260904182412 | 84 | 143 | 1.0 | 2.0 | 0.00 | 0.00 | 0.00 | 47 | 1015.5 |
| 20260904181911 | 84 | 103 | 1.0 | 4.0 | 0.00 | 0.00 | 0.00 | 48 | 1015.5 |
| 20260904181410 | 84 | 104 | 1.0 | 4.0 | 0.00 | 0.01 | 0.00 | 48 | 1015.4 |
| 20260904180908 | 84 | 135 | 1.0 | 3.0 | 0.00 | 0.01 | 0.00 | 48 | 1015.4 |
| 20260904180408 | 84 | 271 | 1.0 | 3.0 | 0.00 | 0.02 | 0.00 | 52 | 1015.3 |
| 20260904175909 | 84 | 271 | 1.0 | 3.0 | 0.00 | 0.04 | 0.00 | 54 | 1015.2 |
| 20260904175408 | 85 | 252 | 1.0 | 2.0 | 0.00 | 0.04 | 0.00 | 55 | 1015.1 |
| 20260904175129 | 85 | 268 | 0.0 | 2.0 | 0.00 | 0.05 | 0.00 | 54 | 1015.0 |
| 20260904174401 | 85 | 41 | 0.0 | 2.0 | 0.00 | 0.11 | 0.00 | 52 | 1015.0 |
| 20260904173856 | 85 | 41 | 1.0 | 3.0 | 0.00 | 0.17 | 0.00 | 53 | 1014.9 |
| 20260904173349 | 85 | 40 | 2.0 | 5.0 | 0.00 | 0.23 | 0.00 | 52 | 1014.9 |
| 20260904172843 | 86 | 314 | 2.0 | 5.0 | 0.00 | 0.42 | 0.00 | 50 | 1014.8 |
| 20260904172337 | 86 | 311 | 2.0 | 5.0 | 0.00 | 0.52 | 0.00 | 49 | 1014.7 |
| 20260904171830 | 86 | 277 | 3.0 | 9.0 | 0.00 | 0.52 | 0.00 | 49 | 1014.6 |
| 20260904171554 | 86 | 270 | 3.0 | 9.0 | 0.00 | 0.52 | 0.00 | 47 | 1014.5 |
| 20260904171059 | 86 | 258 | 3.0 | 7.0 | 0.00 | 0.52 | 0.00 | 47 | 1014.5 |
| 20260904170106 | 87 | 289 | 3.0 | 6.0 | 0.00 | 0.52 | 0.00 | 49 | 1014.3 |
| 20260904165600 | 87 | 267 | 4.0 | 6.0 | 0.00 | 0.52 | 0.00 | 47 | 1014.3 |
| 20260904165054 | 87 | 283 | 4.0 | 6.0 | 0.00 | 0.52 | 0.00 | 50 | 1014.3 |
| 20260904164548 | 87 | 292 | 3.0 | 6.0 | 0.00 | 0.52 | 0.00 | 47 | 1014.2 |
| 20260904164038 | 87 | 274 | 4.0 | 8.0 | 0.00 | 0.52 | 0.00 | 47 | 1014.2 |
| 20260904163532 | 88 | 273 | 4.0 | 8.0 | 0.00 | 0.52 | 0.00 | 45 | 1014.2 |
| 20260904163026 | 89 | 231 | 3.0 | 7.0 | 0.00 | 0.52 | 0.00 | 44 | 1014.1 |
| 20260904162520 | 89 | 248 | 3.0 | 6.0 | 0.00 | 0.52 | 0.00 | 44 | 1014.1 |
| 20260904162013 | 89 | 292 | 4.0 | 10.0 | 0.00 | 0.52 | 0.00 | 44 | 1014.1 |
| 20260904161507 | 90 | 259 | 5.0 | 10.0 | 0.00 | 0.52 | 0.00 | 43 | 1014.0 |
| 20260904161001 | 90 | 259 | 5.0 | 11.0 | 0.00 | 0.52 | 0.00 | 36 | 1014.1 |
| 20260904160456 | 91 | 261 | 5.0 | 11.0 | 0.00 | 0.52 | 0.00 | 34 | 1014.1 |
| 20260904155950 | 91 | 281 | 5.0 | 8.0 | 0.00 | 0.52 | 0.00 | 34 | 1014.1 |
| 20260904155443 | 90 | 281 | 5.0 | 10.0 | 0.00 | 0.52 | 0.00 | 36 | 1014.1 |
| 20260904154938 | 91 | 308 | 5.0 | 10.0 | 0.00 | 0.52 | 0.00 | 36 | 1014.1 |
| 20260904154433 | 91 | 298 | 6.0 | 12.0 | 0.00 | 0.52 | 0.00 | 34 | 1014.0 |
| 20260904153926 | 91 | 281 | 7.0 | 12.0 | 0.00 | 0.52 | 0.00 | 31 | 1014.1 |
| 20260904153646 | 91 | 290 | 7.0 | 13.0 | 0.00 | 0.52 | 0.00 | 33 | 1014.0 |
| 20260904153412 | 91 | 297 | 8.0 | 15.0 | 0.00 | 0.52 | 0.00 | 30 | 1014.0 |
| 20260904152426 | 91 | 299 | 7.0 | 15.0 | 0.00 | 0.52 | 0.00 | 30 | 1013.9 |
| 20260904151926 | 92 | 319 | 5.0 | 10.0 | 0.00 | 0.52 | 0.00 | 34 | 1013.9 |
| 20260904151426 | 92 | 289 | 3.0 | 10.0 | 0.00 | 0.52 | 0.00 | 30 | 1014.0 |
| 20260904150928 | 93 | 11 | 3.0 | 8.0 | 0.00 | 0.52 | 0.00 | 26 | 1014.0 |
| 20260904150650 | 93 | 2 | 3.0 | 9.0 | 0.00 | 0.52 | 0.00 | 24 | 1013.9 |
| 20260904145926 | 93 | 27 | 3.0 | 9.0 | 0.00 | 0.52 | 0.00 | 26 | 1014.0 |
| 20260904145426 | 93 | 27 | 3.0 | 9.0 | 0.00 | 0.52 | 0.00 | 27 | 1013.9 |
| 20260904144926 | 93 | 292 | 3.0 | 9.0 | 0.00 | 0.52 | 0.00 | 27 | 1014.0 |
| 20260904144426 | 93 | 280 | 3.0 | 6.0 | 0.00 | 0.52 | 0.00 | 26 | 1014.0 |
| 20260904143926 | 92 | 0 | 3.0 | 6.0 | 0.00 | 0.52 | 0.00 | 27 | 1014.0 |
| 20260904143426 | 92 | 341 | 3.0 | 7.0 | 0.00 | 0.52 | 0.00 | 28 | 1014.0 |
| 20260904142926 | 93 | 311 | 2.0 | 7.0 | 0.00 | 0.52 | 0.00 | 30 | 1014.1 |
| 20260904142426 | 93 | 294 | 2.0 | 5.0 | 0.00 | 0.52 | 0.00 | 30 | 1014.1 |
| 20260904141924 | 92 | 210 | 2.0 | 5.0 | 0.00 | 0.52 | 0.00 | 31 | 1014.1 |
| 20260904141650 | 92 | 207 | 1.0 | 4.0 | 0.00 | 0.52 | 0.00 | 31 | 1014.1 |
| 20260904140916 | 91 | 203 | 1.0 | 4.0 | 0.00 | 0.52 | 0.00 | 33 | 1014.2 |
| 20260904140410 | 90 | 274 | 2.0 | 5.0 | 0.00 | 0.52 | 0.00 | 33 | 1014.2 |
| 20260904140124 | 90 | 238 | 2.0 | 5.0 | 0.00 | 0.52 | 0.00 | 34 | 1014.2 |
| 20260904135357 | 91 | 210 | 2.0 | 7.0 | 0.00 | 0.52 | 0.00 | 34 | 1014.2 |
| 20260904134851 | 91 | 123 | 2.0 | 7.0 | 0.00 | 0.52 | 0.00 | 35 | 1014.2 |
| 20260904134346 | 91 | 212 | 2.0 | 6.0 | 0.00 | 0.52 | 0.00 | 34 | 1014.2 |
| 20260904133840 | 91 | 226 | 3.0 | 7.0 | 0.00 | 0.52 | 0.00 | 37 | 1014.2 |
| 20260904133334 | 90 | 200 | 3.0 | 7.0 | 0.00 | 0.52 | 0.00 | 38 | 1014.4 |
| 20260904132828 | 90 | 209 | 3.0 | 6.0 | 0.00 | 0.52 | 0.00 | 38 | 1014.4 |
| 20260904132551 | 90 | 143 | 3.0 | 6.0 | 0.00 | 0.52 | 0.00 | 37 | 1014.4 |
| 20260904131822 | 91 | 244 | 3.0 | 8.0 | 0.00 | 0.52 | 0.00 | 37 | 1014.4 |
| 20260904131320 | 91 | 211 | 3.0 | 8.0 | 0.00 | 0.52 | 0.00 | 38 | 1014.4 |
| 20260904130820 | 91 | 207 | 3.0 | 8.0 | 0.00 | 0.52 | 0.00 | 37 | 1014.5 |
| 20260904130320 | 91 | 200 | 3.0 | 8.0 | 0.00 | 0.52 | 0.00 | 36 | 1014.4 |
| 20260904125818 | 91 | 219 | 4.0 | 7.0 | 0.00 | 0.52 | 0.00 | 35 | 1014.5 |
| 20260904125316 | 91 | 243 | 3.0 | 8.0 | 0.00 | 0.52 | 0.00 | 32 | 1014.6 |
| 20260904124816 | 91 | 252 | 3.0 | 9.0 | 0.00 | 0.52 | 0.00 | 33 | 1014.5 |
| 20260904124316 | 91 | 202 | 3.0 | 9.0 | 0.00 | 0.52 | 0.00 | 32 | 1014.6 |
| 20260904123816 | 91 | 260 | 3.0 | 7.0 | 0.00 | 0.52 | 0.00 | 34 | 1014.8 |
| 20260904123313 | 91 | 220 | 4.0 | 10.0 | 0.00 | 0.52 | 0.00 | 34 | 1014.8 |
| 20260904122814 | 91 | 194 | 4.0 | 10.0 | 0.00 | 0.52 | 0.00 | 34 | 1014.8 |
| 20260904122314 | 90 | 252 | 4.0 | 10.0 | 0.00 | 0.52 | 0.00 | 32 | 1014.8 |
| 20260904121813 | 91 | 256 | 4.0 | 8.0 | 0.00 | 0.52 | 0.00 | 32 | 1014.9 |
| 20260904121312 | 91 | 264 | 3.0 | 8.0 | 0.00 | 0.52 | 0.00 | 32 | 1015.0 |
| 20260904120812 | 90 | 207 | 4.0 | 8.0 | 0.00 | 0.52 | 0.00 | 33 | 1015.1 |
| 20260904120312 | 90 | 186 | 4.0 | 8.0 | 0.00 | 0.52 | 0.00 | 33 | 1015.2 |
| 20260904115812 | 90 | 259 | 4.0 | 8.0 | 0.00 | 0.52 | 0.00 | 31 | 1015.2 |
| 20260904115312 | 90 | 247 | 4.0 | 8.0 | 0.00 | 0.52 | 0.00 | 33 | 1015.2 |
| 20260904114812 | 90 | 258 | 4.0 | 8.0 | 0.00 | 0.52 | 0.00 | 35 | 1015.3 |
| 20260904114312 | 90 | 285 | 3.0 | 8.0 | 0.00 | 0.52 | 0.00 | 33 | 1015.3 |
| 20260904114035 | 90 | 323 | 4.0 | 8.0 | 0.00 | 0.52 | 0.00 | 30 | 1015.4 |
| 20260904113312 | 90 | 248 | 5.0 | 7.0 | 0.00 | 0.52 | 0.00 | 30 | 1015.4 |
| 20260904112811 | 89 | 273 | 5.0 | 9.0 | 0.00 | 0.52 | 0.00 | 32 | 1015.5 |
| 20260904112311 | 89 | 255 | 4.0 | 9.0 | 0.00 | 0.52 | 0.00 | 34 | 1015.5 |
| 20260904112258 | 89 | 242 | 5.0 | 8.0 | 0.00 | 0.52 | 0.00 | 33 | 1015.4 |
| 20260904111312 | 89 | 271 | 5.0 | 9.0 | 0.00 | 0.52 | 0.00 | 32 | 1015.5 |
| 20260904111029 | 89 | 268 | 5.0 | 9.0 | 0.00 | 0.52 | 0.00 | 33 | 1015.6 |
| 20260904110312 | 89 | 261 | 5.0 | 8.0 | 0.00 | 0.52 | 0.00 | 33 | 1015.6 |
| 20260904105812 | 88 | 273 | 5.0 | 8.0 | 0.00 | 0.52 | 0.00 | 35 | 1015.6 |
| 20260904105311 | 88 | 263 | 4.0 | 7.0 | 0.00 | 0.52 | 0.00 | 34 | 1015.8 |
| 20260904104811 | 88 | 269 | 4.0 | 7.0 | 0.00 | 0.52 | 0.00 | 37 | 1015.8 |
| 20260904104312 | 88 | 255 | 4.0 | 8.0 | 0.00 | 0.52 | 0.00 | 38 | 1015.8 |
| 20260904103812 | 88 | 262 | 4.0 | 8.0 | 0.00 | 0.52 | 0.00 | 38 | 1015.9 |
| 20260904103312 | 88 | 292 | 3.0 | 6.0 | 0.00 | 0.52 | 0.00 | 38 | 1015.9 |
| 20260904102811 | 87 | 239 | 3.0 | 6.0 | 0.00 | 0.52 | 0.00 | 38 | 1015.8 |
| 20260904102312 | 86 | 265 | 4.0 | 7.0 | 0.00 | 0.52 | 0.00 | 39 | 1015.8 |
| 20260904101811 | 86 | 255 | 5.0 | 8.0 | 0.00 | 0.52 | 0.00 | 38 | 1015.9 |
| 20260904101312 | 86 | 263 | 4.0 | 8.0 | 0.00 | 0.52 | 0.00 | 38 | 1015.9 |
| 20260904100811 | 86 | 283 | 3.0 | 7.0 | 0.00 | 0.52 | 0.00 | 39 | 1015.9 |
| 20260904100311 | 86 | 252 | 3.0 | 6.0 | 0.00 | 0.52 | 0.00 | 38 | 1016.0 |
| 20260904100030 | 86 | 266 | 2.0 | 5.0 | 0.00 | 0.52 | 0.00 | 39 | 1016.1 |
| 20260904095531 | 86 | 289 | 2.0 | 5.0 | 0.00 | 0.52 | 0.00 | 39 | 1016.2 |
| 20260904094811 | 86 | 252 | 1.0 | 5.0 | 0.00 | 0.52 | 0.00 | 38 | 1016.2 |
| 20260904094311 | 86 | 209 | 2.0 | 4.0 | 0.00 | 0.52 | 0.00 | 39 | 1016.3 |
| 20260904093811 | 85 | 266 | 2.0 | 4.0 | 0.00 | 0.52 | 0.00 | 39 | 1016.3 |
| 20260904093312 | 85 | 217 | 2.0 | 4.0 | 0.00 | 0.52 | 0.00 | 38 | 1016.3 |
| 20260904092811 | 86 | 274 | 2.0 | 5.0 | 0.00 | 0.52 | 0.00 | 38 | 1016.4 |
| 20260904092306 | 85 | 281 | 3.0 | 6.0 | 0.00 | 0.52 | 0.00 | 39 | 1016.4 |
| 20260904091956 | 85 | 271 | 3.0 | 6.0 | 0.00 | 0.52 | 0.00 | 39 | 1016.4 |
| 20260904091840 | 85 | 262 | 3.0 | 6.0 | 0.00 | 0.52 | 0.00 | 39 | 1016.4 |
| 20260904090747 | 85 | 248 | 3.0 | 6.0 | 0.00 | 0.52 | 0.00 | 39 | 1016.5 |
| 20260904090241 | 85 | 313 | 3.0 | 5.0 | 0.00 | 0.52 | 0.00 | 39 | 1016.5 |
| 20260904085742 | 84 | 266 | 3.0 | 6.0 | 0.00 | 0.52 | 0.00 | 39 | 1016.5 |
| 20260904085240 | 84 | 283 | 3.0 | 6.0 | 0.00 | 0.52 | 0.00 | 39 | 1016.6 |
| 20260904084740 | 84 | 286 | 3.0 | 6.0 | 0.00 | 0.52 | 0.00 | 40 | 1016.7 |
| 20260904084239 | 84 | 308 | 4.0 | 8.0 | 0.00 | 0.52 | 0.00 | 41 | 1016.7 |
| 20260904083740 | 84 | 282 | 5.0 | 8.0 | 0.00 | 0.52 | 0.00 | 41 | 1016.9 |
| 20260904083239 | 83 | 289 | 5.0 | 9.0 | 0.00 | 0.52 | 0.00 | 40 | 1016.7 |
| 20260904082740 | 83 | 331 | 5.0 | 10.0 | 0.00 | 0.52 | 0.00 | 43 | 1016.7 |
| 20260904082720 | 83 | 295 | 6.0 | 11.0 | 0.00 | 0.52 | 0.00 | 44 | 1016.7 |
| 20260904081740 | 83 | 298 | 6.0 | 11.0 | 0.00 | 0.52 | 0.00 | 44 | 1016.7 |
| 20260904081240 | 83 | 289 | 8.0 | 14.0 | 0.00 | 0.52 | 0.00 | 46 | 1016.7 |
| 20260904080739 | 83 | 311 | 8.0 | 14.0 | 0.00 | 0.52 | 0.00 | 46 | 1016.9 |
| 20260904080240 | 83 | 295 | 7.0 | 13.0 | 0.00 | 0.52 | 0.00 | 46 | 1016.7 |
| 20260904075740 | 83 | 300 | 5.0 | 13.0 | 0.00 | 0.52 | 0.00 | 47 | 1016.6 |
| 20260904075242 | 83 | 320 | 5.0 | 9.0 | 0.00 | 0.52 | 0.00 | 47 | 1016.6 |
| 20260904074740 | 82 | 321 | 6.0 | 12.0 | 0.00 | 0.52 | 0.00 | 47 | 1016.4 |
| 20260904074233 | 82 | 3 | 6.0 | 12.0 | 0.00 | 0.52 | 0.00 | 47 | 1016.4 |
| 20260904073727 | 82 | 302 | 4.0 | 10.0 | 0.00 | 0.52 | 0.00 | 47 | 1016.3 |
| 20260904073220 | 81 | 301 | 3.0 | 7.0 | 0.00 | 0.52 | 0.00 | 52 | 1016.3 |
| 20260904072714 | 80 | 281 | 4.0 | 9.0 | 0.00 | 0.52 | 0.00 | 56 | 1016.3 |
| 20260904072208 | 80 | 222 | 5.0 | 9.0 | 0.00 | 0.52 | 0.00 | 56 | 1016.4 |
| 20260904071702 | 80 | 289 | 5.0 | 9.0 | 0.00 | 0.52 | 0.00 | 54 | 1016.3 |
| 20260904071156 | 80 | 307 | 4.0 | 8.0 | 0.00 | 0.52 | 0.00 | 56 | 1016.3 |
| 20260904070650 | 79 | 317 | 3.0 | 6.0 | 0.00 | 0.52 | 0.00 | 56 | 1016.3 |
| 20260904070145 | 78 | 259 | 4.0 | 7.0 | 0.00 | 0.52 | 0.00 | 59 | 1016.2 |
| 20260904065859 | 78 | 304 | 5.0 | 9.0 | 0.00 | 0.52 | 0.00 | 58 | 1016.1 |
| 20260904065132 | 78 | 316 | 5.0 | 9.0 | 0.00 | 0.52 | 0.00 | 58 | 1016.1 |
| 20260904064626 | 78 | 328 | 4.0 | 8.0 | 0.00 | 0.52 | 0.00 | 58 | 1016.0 |
| 20260904064120 | 78 | 293 | 4.0 | 8.0 | 0.00 | 0.52 | 0.00 | 59 | 1016.0 |
| 20260904063614 | 78 | 305 | 3.0 | 6.0 | 0.00 | 0.52 | 0.00 | 56 | 1016.0 |
| 20260904063108 | 79 | 290 | 2.0 | 6.0 | 0.00 | 0.52 | 0.00 | 58 | 1016.0 |
| 20260904062602 | 79 | 298 | 3.0 | 6.0 | 0.00 | 0.52 | 0.00 | 58 | 1016.0 |
| 20260904062318 | 80 | 282 | 2.0 | 6.0 | 0.00 | 0.52 | 0.00 | 57 | 1016.0 |
| 20260904061548 | 80 | 355 | 1.0 | 4.0 | 0.00 | 0.52 | 0.00 | 53 | 1016.0 |
| 20260904061043 | 79 | 356 | 2.0 | 6.0 | 0.00 | 0.52 | 0.00 | 53 | 1015.9 |
| 20260904060536 | 78 | 41 | 2.0 | 6.0 | 0.00 | 0.52 | 0.00 | 54 | 1015.8 |
| 20260904060030 | 78 | 312 | 3.0 | 6.0 | 0.00 | 0.52 | 0.00 | 54 | 1015.8 |
| 20260904055523 | 78 | 6 | 4.0 | 6.0 | 0.00 | 0.52 | 0.00 | 55 | 1015.9 |